[[{"header":{"parameterUnit":"m.s-1","parameterCategory":1,"la1":30.2991,"la2":30.254,"lo1":-89.0895,"lo2":-89.0444,"dy":0.0017,"dx":0.0017,"nx":28,"ny":28,"refTime":"2024-07-25T09:00:00:Z","depth":0,"parameterNumber":2,"parameterNumberName":"U-component_of_WINDS"},"data":[0,0,0,0,0,0,0,0,0,0,0,0,0,0,0,0,0,0,0,0,0,0,0,0,0,0,0,0,0,0,0,0,0,0,0,0,0,0,0,0,0,0,0,0,0,0,0,0,0,0,0,0,0,0,0,0,0,0,-0.0459,-0.0458,0,-0.0374,-0.0373,-0.0372,-0.0333,-0.0333,-0.0334,-0.0334,-0.0245,-0.0242,-0.024,0,0,0,0,0,0,0,0,0,0,0,0,0,-0.0586,-0.0584,-0.0459,-0.0458,-0.0457,-0.0374,-0.0373,-0.0372,-0.0333,-0.0333,-0.0334,-0.0334,-0.0245,-0.0243,-0.024,0,0,0,0,0,0,0,0,0,0,0,0,0,-0.0519,-0.0583,-0.0459,-0.0428,-0.0424,-0.0375,-0.0373,-0.0372,-0.0333,-0.0333,-0.0334,-0.0334,-0.0246,-0.0243,-0.0239,-0.0214,0,0,-0.0228,-0.0226,0,0,0,0,0,0,0,0,-0.0523,-0.0514,-0.0433,-0.043,-0.0426,-0.0365,-0.0385,-0.0319,-0.0333,-0.0368,-0.0334,-0.0334,-0.0284,-0.0278,-0.0261,-0.021,-0.0206,-0.0228,-0.0225,-0.0224,-0.0223,0,0,0,0,0,0,0,-0.0527,-0.0518,-0.0425,-0.0432,-0.0428,-0.0417,-0.0408,-0.0372,-0.0326,-0.0365,-0.0362,-0.0352,-0.0282,-0.0265,-0.0259,-0.0205,-0.0228,-0.0225,-0.0222,-0.0221,-0.0128,-0.0128,0,0,0,0,0,0,-0.0537,-0.0522,-0.0428,-0.0423,-0.0476,-0.0415,-0.0404,-0.0384,-0.0327,-0.0318,-0.0352,-0.0351,-0.0271,-0.0263,-0.0256,-0.0222,-0.0224,-0.022,-0.0218,-0.0128,-0.0128,-0.0128,0,0,0,0,0,0,-0.054,-0.0529,-0.0431,-0.0471,-0.0458,-0.0413,-0.039,-0.0382,-0.0365,-0.0317,-0.0309,-0.0343,-0.0271,-0.0261,-0.0225,-0.0219,-0.0219,-0.0215,-0.0129,-0.0128,-0.0128,-0.0155,0,0,0,0,0,0,-0.0544,-0.0531,-0.0521,-0.0472,-0.0456,-0.0403,-0.039,-0.038,-0.0359,-0.0356,-0.0306,-0.0298,-0.027,-0.023,-0.0221,-0.0213,-0.0213,-0.0129,-0.0129,-0.0128,-0.0155,-0.0156,-0.0157,0,0,0,0,0,-0.0549,-0.0532,-0.0521,-0.051,-0.0443,-0.0402,-0.0394,-0.0362,-0.0359,-0.0348,-0.0318,-0.03,-0.0221,-0.0227,-0.0216,-0.0207,-0.0129,-0.0129,-0.0128,-0.0154,-0.0156,-0.0157,0,0,0,0,0,0,-0.0581,-0.0525,-0.0512,-0.0478,-0.0446,-0.0396,-0.0382,-0.0365,-0.0332,-0.0331,-0.0292,-0.0282,-0.0249,-0.0224,-0.0232,-0.018,-0.0173,-0.0171,-0.0197,-0.0198,-0.0199,-0.0205,-0.021,0,0,0,0,0,-0.0584,-0.0556,-0.0508,-0.0483,-0.0468,-0.0428,-0.0409,-0.0388,-0.0352,-0.0338,-0.0304,-0.027,-0.0237,-0.0216,-0.0183,-0.0151,-0.014,-0.014,-0.0141,-0.0142,-0.014,-0.0121,-0.012,-0.0126,-0.0126,-0.0126,0,0,-0.059,-0.0556,-0.0541,-0.0489,-0.0461,-0.0432,-0.0416,-0.0387,-0.0365,-0.0333,-0.0297,-0.0271,-0.023,-0.0196,-0.0179,-0.0175,-0.0136,-0.0141,-0.0143,-0.014,-0.012,-0.012,-0.0119,-0.0126,-0.0126,-0.0126,0,0,-0.0587,-0.0559,-0.0535,-0.0507,-0.0466,-0.0439,-0.0434,-0.0387,-0.0369,-0.0332,-0.0308,-0.0281,-0.0226,-0.0197,-0.0176,-0.0162,-0.0144,-0.0153,-0.0158,-0.014,-0.0139,-0.0139,-0.0134,-0.0133,-0.0151,-0.0151,-0.0151,0,-0.06,-0.0556,-0.0524,-0.0496,-0.0474,-0.0445,-0.042,-0.0394,-0.0344,-0.0329,-0.0325,-0.0255,-0.0225,-0.0184,-0.0181,-0.0165,-0.0156,-0.0158,-0.0142,-0.0141,-0.014,-0.0135,-0.0133,-0.0152,-0.0152,-0.0152,-0.0152,0,-0.0574,-0.0544,-0.053,-0.0483,-0.0459,-0.0433,-0.0396,-0.0376,-0.0357,-0.0331,-0.0294,-0.0258,-0.0217,-0.0206,-0.0187,-0.0162,-0.016,-0.015,-0.0142,-0.0142,-0.0136,-0.0134,-0.0154,-0.0153,-0.0153,-0.0153,0,0,-0.0588,-0.0524,-0.0519,-0.0497,-0.0449,-0.0425,-0.0398,-0.0359,-0.0342,-0.0308,-0.0284,-0.0238,-0.0228,-0.0204,-0.0181,-0.0165,-0.0157,-0.0157,-0.0155,-0.0158,-0.0127,-0.0135,-0.0133,-0.0145,-0.0145,-0.0144,-0.013,0,-0.0578,-0.0527,-0.0498,-0.0459,-0.0431,-0.0403,-0.0379,-0.0347,-0.0322,-0.0294,-0.0266,-0.0234,-0.0224,-0.0209,-0.0192,-0.0162,-0.015,-0.0162,-0.0121,-0.012,-0.0132,-0.013,-0.0138,-0.0127,-0.0128,-0.0128,-0.0127,0,-0.0559,-0.0527,-0.0486,-0.0441,-0.0428,-0.0407,-0.0369,-0.0343,-0.0306,-0.0289,-0.0262,-0.024,-0.0209,-0.0205,-0.0161,-0.017,-0.0152,-0.0134,-0.0133,-0.0127,-0.0124,-0.0124,-0.0123,-0.0121,-0.0124,-0.0124,-0.0124,0,-0.0573,-0.0519,-0.0488,-0.047,-0.0417,-0.0403,-0.038,-0.0343,-0.0322,-0.0289,-0.0274,-0.0238,-0.0217,-0.0189,-0.0157,-0.0157,-0.0117,-0.011,-0.0102,-0.0102,-0.0094,-0.0095,-0.0089,-0.0083,-0.0083,-0.0083,-0.0083,0,-0.0564,-0.054,-0.0493,-0.0474,-0.0446,-0.0412,-0.0385,-0.036,-0.0328,-0.0303,-0.0276,-0.0253,-0.0212,-0.0184,-0.0159,-0.0127,-0.0118,-0.0103,-0.0096,-0.0105,-0.0107,-0.0092,-0.0092,-0.0082,-0.0083,-0.0083,-0.0083,0,-0.0575,-0.0543,-0.0506,-0.046,-0.0447,-0.0429,-0.0389,-0.0369,-0.0343,-0.0311,-0.0302,-0.0261,-0.0226,-0.0192,-0.0145,-0.0128,-0.0096,-0.0088,-0.0109,-0.0105,-0.0098,-0.0099,-0.0082,-0.0078,-0.0076,-0.0076,-0.0076,0,-0.0571,-0.0552,-0.0504,-0.0486,-0.0464,-0.0434,-0.0413,-0.0379,-0.0357,-0.0313,-0.0298,-0.0262,-0.0231,-0.0177,-0.0142,-0.0106,-0.0097,-0.0093,-0.0091,-0.01,-0.0096,-0.0097,-0.0095,-0.0094,-0.0094,-0.0094,-0.0094,0,-0.0569,-0.0554,-0.0524,-0.0488,-0.0463,-0.0433,-0.0402,-0.0389,-0.0349,-0.0326,-0.029,-0.0267,-0.0219,-0.0183,-0.0143,-0.0119,-0.01,-0.0096,-0.0092,-0.01,-0.0113,-0.0105,-0.0111,-0.0096,-0.0096,-0.0096,-0.0096,-0.0096,-0.0572,-0.0553,-0.0517,-0.0484,-0.0458,-0.043,-0.0408,-0.038,-0.035,-0.031,-0.0291,-0.0256,-0.0219,-0.0163,-0.014,-0.0111,-0.0106,-0.01,-0.0099,-0.0098,-0.01,-0.0118,-0.0103,-0.0103,-0.0103,-0.0103,-0.0103,0,-0.0567,-0.0542,-0.0513,-0.0471,-0.0445,-0.0431,-0.0396,-0.0375,-0.0344,-0.0312,-0.0282,-0.0242,-0.0207,-0.017,-0.0133,-0.0117,-0.0107,-0.0108,-0.0108,-0.0103,-0.0106,-0.0113,-0.0116,-0.0116,-0.0116,-0.0116,-0.0116,-0.0116,-0.0562,-0.053,-0.0511,-0.0466,-0.0441,-0.0406,-0.0388,-0.0361,-0.0335,-0.0292,-0.0263,-0.0239,-0.0205,-0.0165,-0.0132,-0.0122,-0.0109,-0.0113,-0.0101,-0.0104,-0.0103,-0.0102,-0.0108,-0.0111,-0.0111,-0.01,-0.01,-0.01]},{"header":{"parameterUnit":"m.s-1","parameterCategory":1,"la1":30.2991,"la2":30.254,"lo1":-89.0895,"lo2":-89.0444,"dy":0.0017,"dx":0.0017,"nx":28,"ny":28,"refTime":"2024-07-25T09:00:00:Z","depth":0,"parameterNumber":3,"parameterNumberName":"V-component_of_WINDS"},"data":[0,0,0,0,0,0,0,0,0,0,0,0,0,0,0,0,0,0,0,0,0,0,0,0,0,0,0,0,0,0,0,0,0,0,0,0,0,0,0,0,0,0,0,0,0,0,0,0,0,0,0,0,0,0,0,0,0,0,1.7272,1.7272,0,1.7287,1.7287,1.7287,1.725,1.7248,1.7247,1.7246,1.726,1.7262,1.7263,0,0,0,0,0,0,0,0,0,0,0,0,0,1.721,1.7211,1.7272,1.7272,1.7272,1.7287,1.7287,1.7287,1.725,1.7248,1.7247,1.7246,1.726,1.7261,1.7263,0,0,0,0,0,0,0,0,0,0,0,0,0,1.7232,1.7212,1.7272,1.7255,1.7254,1.7287,1.7287,1.7287,1.725,1.7248,1.7246,1.7245,1.7259,1.7261,1.7263,1.7312,0,0,1.727,1.7271,0,0,0,0,0,0,0,0,1.7231,1.7234,1.7258,1.7257,1.7255,1.7265,1.727,1.7296,1.725,1.7252,1.7246,1.7244,1.7263,1.7265,1.7271,1.7313,1.7313,1.727,1.7272,1.7273,1.7273,0,0,0,0,0,0,0,1.7229,1.7234,1.7278,1.7258,1.7257,1.7247,1.7248,1.7275,1.7267,1.7251,1.7249,1.7251,1.7262,1.7269,1.7271,1.7314,1.727,1.7272,1.7274,1.7274,1.7395,1.7397,0,0,0,0,0,0,1.723,1.7233,1.7277,1.7278,1.7239,1.7249,1.7251,1.7263,1.7267,1.7265,1.7252,1.7249,1.7266,1.7269,1.7272,1.7329,1.7273,1.7275,1.7276,1.7394,1.7396,1.7398,0,0,0,0,0,0,1.7229,1.7235,1.7277,1.7255,1.7259,1.7252,1.7267,1.7265,1.7272,1.7267,1.7266,1.7262,1.7265,1.7269,1.7302,1.7329,1.7276,1.7278,1.7391,1.7394,1.7397,1.7444,0,0,0,0,0,0,1.7227,1.7234,1.7253,1.7255,1.7261,1.7308,1.7268,1.7266,1.7276,1.7272,1.7275,1.7274,1.7264,1.7299,1.7305,1.7331,1.7279,1.7389,1.7393,1.7396,1.744,1.7448,1.7455,0,0,0,0,0,1.7225,1.7266,1.7254,1.726,1.7284,1.7309,1.7312,1.73,1.7278,1.7297,1.7294,1.7274,1.7325,1.7303,1.7309,1.7336,1.7387,1.7392,1.7396,1.7437,1.7446,1.7455,0,0,0,0,0,0,1.7267,1.7266,1.7253,1.7296,1.7303,1.7303,1.7326,1.7311,1.7324,1.732,1.7303,1.7304,1.7341,1.7342,1.7317,1.7383,1.7352,1.7358,1.7382,1.7391,1.7398,1.7397,1.7281,0,0,0,0,0,1.7281,1.7302,1.73,1.7337,1.7342,1.7334,1.7344,1.7334,1.734,1.7343,1.7343,1.735,1.7367,1.7379,1.7395,1.744,1.744,1.7461,1.7469,1.7475,1.748,1.7504,1.7513,1.7412,1.7412,1.7412,0,0,1.731,1.7312,1.7327,1.7346,1.735,1.7372,1.7336,1.7361,1.7377,1.7347,1.7379,1.7379,1.7385,1.7425,1.7442,1.7427,1.7508,1.748,1.7485,1.7487,1.7509,1.7518,1.7527,1.7415,1.7414,1.7414,0,0,1.7375,1.7379,1.741,1.7415,1.7423,1.7417,1.7424,1.7427,1.7426,1.7457,1.7435,1.7454,1.7484,1.749,1.7496,1.7563,1.7545,1.7568,1.7607,1.763,1.7638,1.7645,1.7669,1.7677,1.7573,1.7573,1.7573,0,1.741,1.7443,1.7428,1.7454,1.7463,1.7437,1.7469,1.7475,1.7487,1.7493,1.7475,1.7513,1.7516,1.7556,1.7572,1.7578,1.7586,1.7568,1.7638,1.7645,1.7651,1.7674,1.7683,1.7576,1.7576,1.7575,1.7575,0,1.7486,1.7508,1.7533,1.7545,1.7557,1.7586,1.7575,1.7589,1.7577,1.7573,1.7605,1.7608,1.7623,1.7632,1.7621,1.7671,1.7661,1.7641,1.761,1.7664,1.7685,1.7693,1.758,1.7579,1.7578,1.7577,0,0,1.7577,1.7581,1.7591,1.7596,1.7601,1.7618,1.7646,1.7661,1.7673,1.7682,1.7704,1.773,1.7712,1.7719,1.7709,1.7729,1.7781,1.7706,1.7706,1.772,1.7835,1.785,1.7861,1.7769,1.7771,1.7772,1.7835,0,1.7641,1.7688,1.7676,1.7723,1.7743,1.7719,1.7742,1.7748,1.7745,1.7761,1.7757,1.7776,1.775,1.7755,1.7774,1.7771,1.7804,1.7766,1.7789,1.779,1.7789,1.7871,1.7887,1.7947,1.7843,1.7844,1.7845,0,1.7722,1.7734,1.7783,1.7785,1.7793,1.7815,1.7828,1.7844,1.785,1.7846,1.7854,1.7839,1.7865,1.7834,1.787,1.7844,1.7853,1.7852,1.7854,1.7856,1.7821,1.7875,1.7966,1.7975,1.7858,1.7857,1.7856,0,1.7784,1.7812,1.7845,1.785,1.7854,1.7869,1.7871,1.7875,1.7885,1.7896,1.7903,1.7917,1.7924,1.7935,1.7924,1.7902,1.7962,1.7929,1.7959,1.7959,1.7973,1.7972,1.8066,1.7978,1.7978,1.7978,1.7978,0,1.7856,1.7887,1.7873,1.7893,1.7927,1.7912,1.7946,1.7945,1.7949,1.7968,1.7947,1.7966,1.795,1.7967,1.7958,1.7989,1.7993,1.799,1.7987,1.7992,1.7992,1.7998,1.7993,1.798,1.798,1.7979,1.7979,0,1.7932,1.7923,1.7958,1.7958,1.7958,1.7983,1.7983,1.8001,1.7996,1.8021,1.8026,1.8018,1.8037,1.8027,1.8046,1.804,1.808,1.8072,1.8078,1.8076,1.8106,1.8104,1.8207,1.8219,1.8124,1.8125,1.8126,0,1.7979,1.8002,1.8004,1.8016,1.8019,1.8038,1.8048,1.8034,1.8045,1.8054,1.8071,1.8088,1.8101,1.8132,1.8128,1.8142,1.8134,1.8169,1.8136,1.814,1.8134,1.8133,1.8135,1.8176,1.8177,1.8178,1.8179,0,1.8063,1.8058,1.8073,1.8087,1.81,1.811,1.8119,1.8129,1.8115,1.8129,1.8148,1.8158,1.8177,1.8194,1.8207,1.8208,1.8191,1.8189,1.8197,1.8202,1.8205,1.8203,1.8096,1.8187,1.8186,1.8185,1.8185,1.8185,1.8125,1.8145,1.8149,1.8167,1.8172,1.818,1.8198,1.8195,1.821,1.8226,1.8216,1.8239,1.8243,1.8258,1.8261,1.8278,1.8264,1.8275,1.8278,1.8281,1.8285,1.8202,1.8281,1.828,1.828,1.828,1.828,0,1.8209,1.821,1.8227,1.8239,1.8253,1.8236,1.8244,1.8257,1.8277,1.8283,1.8296,1.8317,1.8334,1.8331,1.8345,1.8359,1.8352,1.8364,1.8362,1.8363,1.8297,1.8289,1.8369,1.8369,1.8369,1.8369,1.8369,1.8369,1.8254,1.8285,1.828,1.8314,1.8315,1.8337,1.8343,1.8351,1.8355,1.838,1.8394,1.8392,1.8394,1.8408,1.8422,1.8421,1.8427,1.8442,1.8438,1.8376,1.8368,1.8359,1.8352,1.8443,1.8444,1.8502,1.8503,1.8503]}]]